Tracking 35274 objects as of 11-Sep-2026
HD Live streaming from Space Station
objects crossing your sky now

IONOSFERA-M 03

Track IONOSFERA-M 03 now!
10-day predictions


NORAD ID: 64876
Int'l Code: 2025-155A
Launch date: July 25, 2025
Source: Commonwealth of Independent States (former USSR) (CIS)
Launch site: VOSTOCHNY COSMODROME (VOSTO)
Your satellite tracking list
Your tracking list is empty




NASA's NSSDC Master Catalog

Two Line Element Set (TLE):
1 64876U 25155A   26254.33084921  .00000015  00000-0  26360-4 0  9995
2 64876  98.6131 214.1038 0001364  22.1664 337.9573 14.21498762 58649
Source of the keplerian elements: AFSPC